Location: Bittelbronn
(48.4454°N, 8.5870°E)
Time: 08:11:44
(UTC+00:00)

deb Kosmos-1275 - Pass Details

Date: 14 October 2024
Orbit: 884 x 986 km, 82.7° (Epoch: 03 November)

Event Time Altitude Azimuth Distance (km) Brightness Sun altitude
Exits shadow 21:06:00 12° 8° (N) 2,463 ? -42.2°
Drops below altitude 10° 21:06:27 10° 8° (N) 2,629 ? -42.2°
Sets 21:08:55 0° 10° (N) 3,569 ? -42.5°
